Simultaneous Nadir Overpasses (SNOs) Predictions

Prediction of SNOs between LANDSAT-8 and METOP-B Satellite Orbit:

Table of predicted SNOs for the next 14.0 days since TLE Epoch: 6/4/2016
Index Date (LANDSAT-8) Time (LANDSAT-8) Lat,Lon (LANDSAT-8) SZA (LANDSAT-8 ) Date (METOP-B) Time (METOP-B) Lat,Lon (METOP-B) SZA (METOP-B ) Distance(km) Time Diff (sec)
1 06/04/2016 13:29:33 81.09, 17.15 60.75 06/04/2016 13:29:27 81.09, 17.02 60.73 2.39 6
2 06/04/2016 14:18:59 -81.11,-174.92 119.21 06/04/2016 14:20:06 -81.11,-175.00 119.19 1.46 67
3 06/07/2016 08:14:24 -81.06, -84.59 119.63 06/07/2016 08:13:11 -81.06, -84.52 119.65 1.42 73
4 06/07/2016 09:03:49 81.09, 83.49 60.44 06/07/2016 09:03:50 81.09, 83.51 60.44 0.40 1
5 06/07/2016 09:53:10 -81.22,-106.72 119.24 06/07/2016 09:54:24 -81.17,-106.62 119.24 6.02 74
6 06/10/2016 03:48:39 -81.07, -17.91 119.84 06/10/2016 03:47:34 -81.07, -18.05 119.89 2.51 65
7 06/10/2016 04:38:04 81.10, 150.14 60.23 06/10/2016 04:38:13 81.09, 149.97 60.20 3.16 9
8 06/12/2016 23:22:54 -81.06, 48.36 120.06 06/12/2016 23:21:56 -81.07, 48.40 120.08 0.89 58
9 06/13/2016 00:12:19 81.09,-143.62 60.00 06/13/2016 00:12:35 81.09,-143.59 60.01 0.61 16
10 06/15/2016 18:57:09 -81.07, 114.94 120.18 06/15/2016 18:56:19 -81.07, 114.82 120.22 2.07 50




NCC Satellite Simultaneous Nadir Overpasses (SNOs) Prediction Service
